Location: Unspecified
(44.0704°N, 88.6889°W)
Time: 15:38:02
(UTC+02:00)

Altair - Pass Details

Date: 20 June 2019
Orbit: 1501 x 1683 km, 47.2° (Epoch: 19 August)

Event Time Altitude Azimuth Distance (km) Brightness Sun altitude
Rises 03:33:53 0° 217° (SW) 4,684 10.1 0.2°
Reaches altitude 10° 03:36:59 10° 213° (SSW) 3,725 9.5 -0.2°
Maximum altitude 03:45:59 50° 141° (SE) 1,944 7.7 -1.6°
Drops below altitude 10° 03:55:20 10° 70° (ENE) 3,876 9.3 -2.9°
Sets 03:58:37 0° 65° (ENE) 4,886 9.9 -3.4°
